Location: Nied?wied?
(53.3665°N, 14.8184°E)
Time: 18:52:02
(UTC+00:00)

ISS - Pass Details

Date: 15 May 2021
Orbit: 417 x 422 km, 51.6° (Epoch: 14 June)

Event Time Altitude Azimuth Distance (km) Brightness Sun altitude
Rises 20:02:22 0° 211° (SSW) 2,355 -0.1 -8.4°
Reaches altitude 10° 20:04:51 10° 193° (SSW) 1,496 -1.3 -8.6°
Maximum altitude 20:07:17 19° 146° (SSE) 1,077 -2.3 -8.9°
Drops below altitude 10° 20:09:44 10° 100° (E) 1,505 -1.4 -9.1°
Sets 20:12:15 0° 81° (E) 2,374 -0.2 -9.3°
